1588024821,2020-04-28 00:00,447.00,-28
1588024881,2020-04-28 00:01,451.00,-30
1588024942,2020-04-28 00:02,450.00,-27
1588025002,2020-04-28 00:03,451.00,-28
1588025062,2020-04-28 00:04,448.00,-28
1588025122,2020-04-28 00:05,452.00,-31
1588025182,2020-04-28 00:06,448.00,-28
1588025242,2020-04-28 00:07,450.00,-28
1588025302,2020-04-28 00:08,449.00,-28
1588025362,2020-04-28 00:09,452.00,-28
1588025422,2020-04-28 00:10,447.00,-28
1588025482,2020-04-28 00:11,449.00,-27
1588025542,2020-04-28 00:12,451.00,-30
1588025602,2020-04-28 00:13,450.00,-29
1588025662,2020-04-28 00:14,450.00,-30
1588025722,2020-04-28 00:15,449.00,-29
1588025782,2020-04-28 00:16,449.00,-27
1588025843,2020-04-28 00:17,450.00,-29
1588025903,2020-04-28 00:18,448.00,-31
1588025963,2020-04-28 00:19,450.00,-28
1588026023,2020-04-28 00:20,453.00,-28
1588026083,2020-04-28 00:21,447.00,-28
1588026143,2020-04-28 00:22,450.00,-32
1588026203,2020-04-28 00:23,454.00,-28
1588026263,2020-04-28 00:24,453.00,-29
1588026323,2020-04-28 00:25,455.00,-30
1588026383,2020-04-28 00:26,453.00,-28
1588026443,2020-04-28 00:27,451.00,-30
1588026503,2020-04-28 00:28,451.00,-29
1588026563,2020-04-28 00:29,452.00,-33
1588026623,2020-04-28 00:30,450.00,-29
1588026683,2020-04-28 00:31,451.00,-30
1588026743,2020-04-28 00:32,452.00,-28
1588026803,2020-04-28 00:33,454.00,-27
1588026863,2020-04-28 00:34,452.00,-32
1588026924,2020-04-28 00:35,452.00,-30
1588026984,2020-04-28 00:36,453.00,-29
1588027044,2020-04-28 00:37,451.00,-30
1588027104,2020-04-28 00:38,452.00,-27
1588027164,2020-04-28 00:39,450.00,-30
1588027224,2020-04-28 00:40,452.00,-28
1588027284,2020-04-28 00:41,452.00,-29
1588027344,2020-04-28 00:42,448.00,-28
1588027404,2020-04-28 00:43,450.00,-27
1588027464,2020-04-28 00:44,451.00,-27
1588027524,2020-04-28 00:45,450.00,-28
1588027584,2020-04-28 00:46,448.00,-30
1588027644,2020-04-28 00:47,450.00,-28
1588027704,2020-04-28 00:48,454.00,-27
1588027764,2020-04-28 00:49,451.00,-27
1588027825,2020-04-28 00:50,450.00,-29
1588027885,2020-04-28 00:51,452.00,-28
1588027945,2020-04-28 00:52,452.00,-28
1588028005,2020-04-28 00:53,455.00,-28
1588028065,2020-04-28 00:54,458.00,-27
1588028125,2020-04-28 00:55,455.00,-27
1588028185,2020-04-28 00:56,456.00,-27
1588028245,2020-04-28 00:57,459.00,-30
1588028305,2020-04-28 00:58,459.00,-27
1588028365,2020-04-28 00:59,454.00,-27
1588028425,2020-04-28 01:00,454.00,-30
1588028486,2020-04-28 01:01,451.00,-28
1588028546,2020-04-28 01:02,453.00,-27
1588028606,2020-04-28 01:03,452.00,-27
1588028666,2020-04-28 01:04,454.00,-30
1588028726,2020-04-28 01:05,452.00,-27
1588028786,2020-04-28 01:06,455.00,-27
1588028846,2020-04-28 01:07,459.00,-27
1588028906,2020-04-28 01:08,456.00,-29
1588028966,2020-04-28 01:09,455.00,-27
1588029026,2020-04-28 01:10,450.00,-28
1588029087,2020-04-28 01:11,456.00,-27
1588029147,2020-04-28 01:12,453.00,-29
1588029207,2020-04-28 01:13,451.00,-27
1588029267,2020-04-28 01:14,451.00,-29
1588029327,2020-04-28 01:15,452.00,-27
1588029387,2020-04-28 01:16,451.00,-29
1588029447,2020-04-28 01:17,449.00,-28
1588029507,2020-04-28 01:18,454.00,-29
1588029567,2020-04-28 01:19,455.00,-27
1588029627,2020-04-28 01:20,451.00,-29
1588029688,2020-04-28 01:21,450.00,-27
1588029748,2020-04-28 01:22,448.00,-28
1588029808,2020-04-28 01:23,453.00,-27
1588029868,2020-04-28 01:24,452.00,-27
1588029928,2020-04-28 01:25,449.00,-27
1588029988,2020-04-28 01:26,452.00,-29
1588030048,2020-04-28 01:27,450.00,-30
1588030109,2020-04-28 01:28,453.00,-29
1588030169,2020-04-28 01:29,452.00,-27
1588030229,2020-04-28 01:30,453.00,-27
1588030289,2020-04-28 01:31,451.00,-30
1588030349,2020-04-28 01:32,452.00,-27
1588030409,2020-04-28 01:33,450.00,-31
1588030469,2020-04-28 01:34,450.00,-28
1588030529,2020-04-28 01:35,447.00,-29
1588030589,2020-04-28 01:36,449.00,-27
1588030649,2020-04-28 01:37,451.00,-27
1588030709,2020-04-28 01:38,450.00,-28
1588030770,2020-04-28 01:39,454.00,-27
1588030830,2020-04-28 01:40,452.00,-30
1588030890,2020-04-28 01:41,451.00,-29
1588030950,2020-04-28 01:42,455.00,-29
1588031010,2020-04-28 01:43,448.00,-30
1588031070,2020-04-28 01:44,454.00,-28
1588031130,2020-04-28 01:45,452.00,-29
1588031190,2020-04-28 01:46,454.00,-30
1588031250,2020-04-28 01:47,456.00,-28
1588031310,2020-04-28 01:48,455.00,-28
1588031370,2020-04-28 01:49,451.00,-30
1588031430,2020-04-28 01:50,455.00,-29
1588031490,2020-04-28 01:51,454.00,-29
1588031550,2020-04-28 01:52,454.00,-30
1588031610,2020-04-28 01:53,453.00,-29
1588031670,2020-04-28 01:54,453.00,-28
1588031731,2020-04-28 01:55,452.00,-30
1588031791,2020-04-28 01:56,443.00,-29
1588031851,2020-04-28 01:57,442.00,-32
1588031911,2020-04-28 01:58,445.00,-28
1588031971,2020-04-28 01:59,446.00,-28
1588032031,2020-04-28 02:00,443.00,-29
1588032091,2020-04-28 02:01,444.00,-28
1588032151,2020-04-28 02:02,445.00,-28
1588032211,2020-04-28 02:03,444.00,-27
1588032271,2020-04-28 02:04,443.00,-28
1588032331,2020-04-28 02:05,441.00,-29
1588032391,2020-04-28 02:06,445.00,-28
1588032452,2020-04-28 02:07,443.00,-29
1588032512,2020-04-28 02:08,442.00,-27
1588032572,2020-04-28 02:09,440.00,-28
1588032632,2020-04-28 02:10,442.00,-28
1588032692,2020-04-28 02:11,441.00,-29
1588032752,2020-04-28 02:12,440.00,-28
1588032812,2020-04-28 02:13,442.00,-32
1588032872,2020-04-28 02:14,438.00,-28
1588032932,2020-04-28 02:15,441.00,-27
1588032992,2020-04-28 02:16,441.00,-28
1588033052,2020-04-28 02:17,442.00,-29
1588033113,2020-04-28 02:18,440.00,-27
1588033173,2020-04-28 02:19,440.00,-29
1588033233,2020-04-28 02:20,441.00,-28
1588033293,2020-04-28 02:21,442.00,-28
1588033353,2020-04-28 02:22,442.00,-29
1588033413,2020-04-28 02:23,439.00,-28
1588033473,2020-04-28 02:24,440.00,-29
1588033533,2020-04-28 02:25,440.00,-28
1588033594,2020-04-28 02:26,441.00,-28
1588033654,2020-04-28 02:27,440.00,-30
1588033714,2020-04-28 02:28,442.00,-29
1588033774,2020-04-28 02:29,440.00,-27
1588033834,2020-04-28 02:30,441.00,-29
1588033894,2020-04-28 02:31,442.00,-28
1588033954,2020-04-28 02:32,441.00,-28
1588034014,2020-04-28 02:33,441.00,-28
1588034074,2020-04-28 02:34,440.00,-27
1588034134,2020-04-28 02:35,440.00,-28
1588034194,2020-04-28 02:36,437.00,-28
1588034254,2020-04-28 02:37,441.00,-29
1588034315,2020-04-28 02:38,439.00,-28
1588034375,2020-04-28 02:39,440.00,-28
1588034435,2020-04-28 02:40,440.00,-29
1588034495,2020-04-28 02:41,441.00,-28
1588034555,2020-04-28 02:42,442.00,-31
1588034615,2020-04-28 02:43,441.00,-28
1588034675,2020-04-28 02:44,441.00,-28
1588034735,2020-04-28 02:45,442.00,-31
1588034795,2020-04-28 02:46,441.00,-33
1588034855,2020-04-28 02:47,442.00,-28
1588034915,2020-04-28 02:48,440.00,-30
1588034976,2020-04-28 02:49,440.00,-31
1588035036,2020-04-28 02:50,439.00,-33
1588035096,2020-04-28 02:51,439.00,-29
1588035156,2020-04-28 02:52,440.00,-32
1588035216,2020-04-28 02:53,442.00,-34
1588035276,2020-04-28 02:54,442.00,-31
1588035336,2020-04-28 02:55,440.00,-32
1588035396,2020-04-28 02:56,442.00,-27
1588035456,2020-04-28 02:57,443.00,-27
1588035516,2020-04-28 02:58,441.00,-30
1588035576,2020-04-28 02:59,441.00,-28
1588035636,2020-04-28 03:00,443.00,-27
1588035697,2020-04-28 03:01,442.00,-28
1588035757,2020-04-28 03:02,444.00,-28
1588035817,2020-04-28 03:03,442.00,-29
1588035877,2020-04-28 03:04,441.00,-29
1588035937,2020-04-28 03:05,444.00,-27
1588035997,2020-04-28 03:06,443.00,-29
1588036057,2020-04-28 03:07,441.00,-28
1588036117,2020-04-28 03:08,443.00,-28
1588036177,2020-04-28 03:09,442.00,-28
1588036237,2020-04-28 03:10,443.00,-29
1588036297,2020-04-28 03:11,443.00,-29
1588036358,2020-04-28 03:12,444.00,-28
1588036418,2020-04-28 03:13,446.00,-28
1588036478,2020-04-28 03:14,443.00,-27
1588036538,2020-04-28 03:15,442.00,-28
1588036598,2020-04-28 03:16,444.00,-29
1588036658,2020-04-28 03:17,443.00,-30
1588036718,2020-04-28 03:18,445.00,-27
1588036778,2020-04-28 03:19,446.00,-28
1588036838,2020-04-28 03:20,441.00,-31
1588036898,2020-04-28 03:21,442.00,-28
1588036958,2020-04-28 03:22,443.00,-29
1588037018,2020-04-28 03:23,441.00,-28
1588037079,2020-04-28 03:24,445.00,-28
1588037139,2020-04-28 03:25,440.00,-28
1588037199,2020-04-28 03:26,441.00,-31
1588037259,2020-04-28 03:27,442.00,-29
1588037319,2020-04-28 03:28,443.00,-27
1588037379,2020-04-28 03:29,441.00,-27
1588037439,2020-04-28 03:30,441.00,-28
1588037499,2020-04-28 03:31,443.00,-28
1588037559,2020-04-28 03:32,443.00,-28
1588037619,2020-04-28 03:33,442.00,-29
1588037679,2020-04-28 03:34,442.00,-29
1588037740,2020-04-28 03:35,441.00,-28
1588037800,2020-04-28 03:36,447.00,-32
1588037860,2020-04-28 03:37,442.00,-30
1588037920,2020-04-28 03:38,442.00,-28
1588037980,2020-04-28 03:39,440.00,-28
1588038040,2020-04-28 03:40,440.00,-28
1588038100,2020-04-28 03:41,441.00,-28
1588038160,2020-04-28 03:42,443.00,-28
1588038220,2020-04-28 03:43,440.00,-29
1588038280,2020-04-28 03:44,440.00,-27
1588038340,2020-04-28 03:45,441.00,-29
1588038400,2020-04-28 03:46,442.00,-28
1588038460,2020-04-28 03:47,442.00,-28
1588038520,2020-04-28 03:48,443.00,-34
1588038581,2020-04-28 03:49,441.00,-34
1588038641,2020-04-28 03:50,441.00,-34
1588038701,2020-04-28 03:51,440.00,-33
1588038761,2020-04-28 03:52,443.00,-27
1588038821,2020-04-28 03:53,441.00,-29
1588038881,2020-04-28 03:54,442.00,-28
1588038941,2020-04-28 03:55,442.00,-27
1588039002,2020-04-28 03:56,440.00,-27
1588039062,2020-04-28 03:57,443.00,-28
1588039122,2020-04-28 03:58,441.00,-29
1588039182,2020-04-28 03:59,443.00,-29
1588039242,2020-04-28 04:00,445.00,-29
1588039302,2020-04-28 04:01,444.00,-28
1588039362,2020-04-28 04:02,442.00,-29
1588039422,2020-04-28 04:03,442.00,-29
1588039482,2020-04-28 04:04,441.00,-29
1588039542,2020-04-28 04:05,440.00,-28
1588039602,2020-04-28 04:06,442.00,-29
1588039662,2020-04-28 04:07,440.00,-28
1588039722,2020-04-28 04:08,442.00,-27
1588039782,2020-04-28 04:09,439.00,-28
1588039842,2020-04-28 04:10,443.00,-30
1588039903,2020-04-28 04:11,441.00,-28
1588039963,2020-04-28 04:12,441.00,-29
1588040023,2020-04-28 04:13,444.00,-27
1588040083,2020-04-28 04:14,442.00,-28
1588040143,2020-04-28 04:15,444.00,-28
1588040203,2020-04-28 04:16,443.00,-29
1588040263,2020-04-28 04:17,443.00,-28
1588040323,2020-04-28 04:18,440.00,-28
1588040383,2020-04-28 04:19,442.00,-28
1588040443,2020-04-28 04:20,445.00,-31
1588040503,2020-04-28 04:21,445.00,-30
1588040563,2020-04-28 04:22,443.00,-28
1588040623,2020-04-28 04:23,443.00,-28
1588040683,2020-04-28 04:24,442.00,-29
1588040743,2020-04-28 04:25,442.00,-30
1588040803,2020-04-28 04:26,442.00,-29
1588040863,2020-04-28 04:27,442.00,-29
1588040923,2020-04-28 04:28,443.00,-28
1588040983,2020-04-28 04:29,441.00,-30
1588041043,2020-04-28 04:30,443.00,-28
1588041103,2020-04-28 04:31,445.00,-29
1588041163,2020-04-28 04:32,443.00,-28
1588041223,2020-04-28 04:33,444.00,-28
1588041284,2020-04-28 04:34,442.00,-30
1588041344,2020-04-28 04:35,440.00,-28
1588041404,2020-04-28 04:36,442.00,-29
1588041464,2020-04-28 04:37,445.00,-27
1588041524,2020-04-28 04:38,443.00,-29
1588041584,2020-04-28 04:39,444.00,-28
1588041644,2020-04-28 04:40,445.00,-28
1588041704,2020-04-28 04:41,445.00,-31
1588041764,2020-04-28 04:42,443.00,-29
1588041824,2020-04-28 04:43,441.00,-29
1588041884,2020-04-28 04:44,445.00,-27
1588041944,2020-04-28 04:45,444.00,-27
1588042004,2020-04-28 04:46,443.00,-30
1588042064,2020-04-28 04:47,444.00,-27
1588042124,2020-04-28 04:48,445.00,-29
1588042184,2020-04-28 04:49,442.00,-29
1588042244,2020-04-28 04:50,442.00,-27
1588042304,2020-04-28 04:51,441.00,-29
1588042364,2020-04-28 04:52,445.00,-27
1588042424,2020-04-28 04:53,446.00,-28
1588042484,2020-04-28 04:54,445.00,-29
1588042544,2020-04-28 04:55,443.00,-27
1588042604,2020-04-28 04:56,445.00,-29
1588042664,2020-04-28 04:57,442.00,-28
1588042724,2020-04-28 04:58,443.00,-29
1588042785,2020-04-28 04:59,443.00,-29
1588042845,2020-04-28 05:00,443.00,-27
1588042905,2020-04-28 05:01,445.00,-28
1588042965,2020-04-28 05:02,445.00,-31
1588043025,2020-04-28 05:03,443.00,-28
1588043085,2020-04-28 05:04,445.00,-30
1588043145,2020-04-28 05:05,443.00,-28
1588043205,2020-04-28 05:06,443.00,-30
1588043265,2020-04-28 05:07,444.00,-27
1588043325,2020-04-28 05:08,445.00,-28
1588043385,2020-04-28 05:09,443.00,-27
1588043445,2020-04-28 05:10,444.00,-28
1588043505,2020-04-28 05:11,445.00,-28
1588043565,2020-04-28 05:12,445.00,-28
1588043625,2020-04-28 05:13,446.00,-29
1588043685,2020-04-28 05:14,445.00,-27
1588043745,2020-04-28 05:15,447.00,-27
1588043806,2020-04-28 05:16,445.00,-28
1588043866,2020-04-28 05:17,435.00,-28
1588043926,2020-04-28 05:18,438.00,-28
1588043986,2020-04-28 05:19,439.00,-29
1588044046,2020-04-28 05:20,437.00,-30
1588044106,2020-04-28 05:21,437.00,-32
1588044166,2020-04-28 05:22,436.00,-30
1588044226,2020-04-28 05:23,437.00,-29
1588044286,2020-04-28 05:24,439.00,-26
1588044346,2020-04-28 05:25,436.00,-28
1588044406,2020-04-28 05:26,436.00,-28
1588044466,2020-04-28 05:27,435.00,-29
1588044526,2020-04-28 05:28,435.00,-29
1588044586,2020-04-28 05:29,439.00,-28
1588044646,2020-04-28 05:30,437.00,-28
1588044706,2020-04-28 05:31,438.00,-29
1588044766,2020-04-28 05:32,438.00,-30
1588044827,2020-04-28 05:33,438.00,-28
1588044887,2020-04-28 05:34,436.00,-28
1588044947,2020-04-28 05:35,437.00,-29
1588045007,2020-04-28 05:36,436.00,-29
1588045067,2020-04-28 05:37,437.00,-30
1588045127,2020-04-28 05:38,437.00,-33
1588045187,2020-04-28 05:39,438.00,-29
1588045247,2020-04-28 05:40,436.00,-29
1588045307,2020-04-28 05:41,436.00,-28
1588045367,2020-04-28 05:42,439.00,-29
1588045427,2020-04-28 05:43,436.00,-28
1588045487,2020-04-28 05:44,437.00,-28
1588045547,2020-04-28 05:45,438.00,-28
1588045607,2020-04-28 05:46,439.00,-32
1588045667,2020-04-28 05:47,438.00,-29
1588045728,2020-04-28 05:48,438.00,-28
1588045788,2020-04-28 05:49,436.00,-28
1588045848,2020-04-28 05:50,436.00,-30
1588045908,2020-04-28 05:51,437.00,-30
1588045968,2020-04-28 05:52,438.00,-28
1588046028,2020-04-28 05:53,436.00,-29
1588046088,2020-04-28 05:54,437.00,-28
1588046148,2020-04-28 05:55,434.00,-28
1588046208,2020-04-28 05:56,435.00,-29
1588046268,2020-04-28 05:57,437.00,-30
1588046328,2020-04-28 05:58,437.00,-30
1588046388,2020-04-28 05:59,439.00,-29
1588046448,2020-04-28 06:00,436.00,-28
1588046508,2020-04-28 06:01,437.00,-36
1588046568,2020-04-28 06:02,434.00,-33
1588046628,2020-04-28 06:03,434.00,-33
1588046688,2020-04-28 06:04,436.00,-31
1588046749,2020-04-28 06:05,436.00,-29
1588046809,2020-04-28 06:06,435.00,-29
1588046869,2020-04-28 06:07,436.00,-27
1588046929,2020-04-28 06:08,436.00,-30
1588046989,2020-04-28 06:09,436.00,-28
1588047049,2020-04-28 06:10,435.00,-28
1588047109,2020-04-28 06:11,434.00,-30
1588047169,2020-04-28 06:12,436.00,-28
1588047229,2020-04-28 06:13,438.00,-27
1588047289,2020-04-28 06:14,438.00,-29
1588047349,2020-04-28 06:15,437.00,-28
1588047409,2020-04-28 06:16,434.00,-28
1588047469,2020-04-28 06:17,436.00,-28
1588047530,2020-04-28 06:18,436.00,-28
1588047590,2020-04-28 06:19,433.00,-27
1588047650,2020-04-28 06:20,437.00,-31
1588047710,2020-04-28 06:21,433.00,-29
1588047770,2020-04-28 06:22,435.00,-29
1588047830,2020-04-28 06:23,433.00,-28
1588047890,2020-04-28 06:24,435.00,-28
1588047950,2020-04-28 06:25,436.00,-30
1588048010,2020-04-28 06:26,432.00,-29
1588048070,2020-04-28 06:27,434.00,-28
1588048130,2020-04-28 06:28,433.00,-31
1588048191,2020-04-28 06:29,434.00,-28
1588048251,2020-04-28 06:30,434.00,-29
1588048311,2020-04-28 06:31,434.00,-28
1588048371,2020-04-28 06:32,435.00,-30
1588048431,2020-04-28 06:33,432.00,-27
1588048491,2020-04-28 06:34,433.00,-30
1588048551,2020-04-28 06:35,435.00,-29
1588048611,2020-04-28 06:36,433.00,-29
1588048671,2020-04-28 06:37,433.00,-28
1588048731,2020-04-28 06:38,434.00,-28
1588048791,2020-04-28 06:39,434.00,-32
1588048852,2020-04-28 06:40,431.00,-31
1588048912,2020-04-28 06:41,434.00,-30
1588048972,2020-04-28 06:42,432.00,-30
1588049032,2020-04-28 06:43,432.00,-31
1588049092,2020-04-28 06:44,434.00,-29
1588049152,2020-04-28 06:45,434.00,-29
1588049212,2020-04-28 06:46,431.00,-30
1588049272,2020-04-28 06:47,432.00,-29
1588049332,2020-04-28 06:48,431.00,-29
1588049392,2020-04-28 06:49,430.00,-30
1588049453,2020-04-28 06:50,434.00,-29
1588049513,2020-04-28 06:51,433.00,-29
1588049573,2020-04-28 06:52,433.00,-28
1588049633,2020-04-28 06:53,430.00,-32
1588049693,2020-04-28 06:54,432.00,-29
1588049753,2020-04-28 06:55,433.00,-28
1588049813,2020-04-28 06:56,434.00,-28
1588049874,2020-04-28 06:57,432.00,-30
1588049934,2020-04-28 06:58,432.00,-30
1588049994,2020-04-28 06:59,432.00,-28
1588050054,2020-04-28 07:00,432.00,-30
1588050114,2020-04-28 07:01,432.00,-27
1588050174,2020-04-28 07:02,433.00,-29
1588050234,2020-04-28 07:03,430.00,-29
1588050294,2020-04-28 07:04,431.00,-29
1588050354,2020-04-28 07:05,429.00,-28
1588050414,2020-04-28 07:06,430.00,-29
1588050474,2020-04-28 07:07,430.00,-28
1588050534,2020-04-28 07:08,431.00,-28
1588050594,2020-04-28 07:09,430.00,-28
1588050654,2020-04-28 07:10,429.00,-28
1588050714,2020-04-28 07:11,428.00,-30
1588050774,2020-04-28 07:12,428.00,-29
1588050834,2020-04-28 07:13,429.00,-28
1588050895,2020-04-28 07:14,433.00,-31
1588050955,2020-04-28 07:15,433.00,-27
1588051015,2020-04-28 07:16,432.00,-28
1588051075,2020-04-28 07:17,432.00,-32
1588051135,2020-04-28 07:18,430.00,-28
1588051195,2020-04-28 07:19,433.00,-28
1588051255,2020-04-28 07:20,434.00,-29
1588051315,2020-04-28 07:21,432.00,-28
1588051375,2020-04-28 07:22,432.00,-28
1588051435,2020-04-28 07:23,434.00,-29
1588051495,2020-04-28 07:24,435.00,-32
1588051555,2020-04-28 07:25,433.00,-31
1588051615,2020-04-28 07:26,433.00,-28
1588051675,2020-04-28 07:27,435.00,-30
1588051735,2020-04-28 07:28,435.00,-31
1588051795,2020-04-28 07:29,431.00,-30
1588051855,2020-04-28 07:30,432.00,-29
1588051916,2020-04-28 07:31,431.00,-28
1588051976,2020-04-28 07:32,431.00,-30
1588052036,2020-04-28 07:33,431.00,-30
1588052096,2020-04-28 07:34,436.00,-28
1588052156,2020-04-28 07:35,435.00,-29
1588052216,2020-04-28 07:36,433.00,-28
1588052276,2020-04-28 07:37,431.00,-32
1588052336,2020-04-28 07:38,434.00,-27
1588052396,2020-04-28 07:39,432.00,-29
1588052456,2020-04-28 07:40,431.00,-29
1588052516,2020-04-28 07:41,432.00,-28
1588052577,2020-04-28 07:42,429.00,-30
1588052637,2020-04-28 07:43,432.00,-28
1588052697,2020-04-28 07:44,431.00,-28
1588052757,2020-04-28 07:45,430.00,-28
1588052817,2020-04-28 07:46,430.00,-29
1588052877,2020-04-28 07:47,431.00,-28
1588052937,2020-04-28 07:48,430.00,-28
1588052997,2020-04-28 07:49,431.00,-30
1588053057,2020-04-28 07:50,430.00,-30
1588053117,2020-04-28 07:51,431.00,-31
1588053177,2020-04-28 07:52,432.00,-30
1588053237,2020-04-28 07:53,428.00,-28
1588053298,2020-04-28 07:54,431.00,-28
1588053358,2020-04-28 07:55,437.00,-29
1588053418,2020-04-28 07:56,438.00,-30
1588053478,2020-04-28 07:57,438.00,-29
1588053538,2020-04-28 07:58,438.00,-28
1588053598,2020-04-28 07:59,440.00,-29
1588053658,2020-04-28 08:00,438.00,-30
1588053718,2020-04-28 08:01,439.00,-30
1588053778,2020-04-28 08:02,438.00,-30
1588053839,2020-04-28 08:03,439.00,-29
1588053899,2020-04-28 08:04,437.00,-29
1588053959,2020-04-28 08:05,437.00,-30
1588054019,2020-04-28 08:06,436.00,-29
1588054079,2020-04-28 08:07,436.00,-29
1588054139,2020-04-28 08:08,439.00,-28
1588054199,2020-04-28 08:09,434.00,-31
1588054259,2020-04-28 08:10,435.00,-31
1588054319,2020-04-28 08:11,435.00,-28
1588054379,2020-04-28 08:12,437.00,-29
1588054439,2020-04-28 08:13,436.00,-30
1588054499,2020-04-28 08:14,435.00,-29
1588054559,2020-04-28 08:15,437.00,-31
1588054619,2020-04-28 08:16,436.00,-29
1588054679,2020-04-28 08:17,436.00,-29
1588054739,2020-04-28 08:18,436.00,-28
1588054800,2020-04-28 08:20,433.00,-30
1588054860,2020-04-28 08:21,434.00,-30
1588054920,2020-04-28 08:22,435.00,-29
1588054980,2020-04-28 08:23,436.00,-30
1588055040,2020-04-28 08:24,437.00,-29
1588055100,2020-04-28 08:25,435.00,-29
1588055160,2020-04-28 08:26,435.00,-28
1588055220,2020-04-28 08:27,435.00,-29
1588055280,2020-04-28 08:28,432.00,-29
1588055341,2020-04-28 08:29,446.00,-29
1588055401,2020-04-28 08:30,444.00,-28
1588055461,2020-04-28 08:31,443.00,-28
1588055521,2020-04-28 08:32,441.00,-29
1588055581,2020-04-28 08:33,441.00,-31
1588055641,2020-04-28 08:34,442.00,-30
1588055701,2020-04-28 08:35,442.00,-28
1588055761,2020-04-28 08:36,440.00,-29
1588055821,2020-04-28 08:37,442.00,-29
1588055881,2020-04-28 08:38,442.00,-28
1588055941,2020-04-28 08:39,442.00,-28
1588056002,2020-04-28 08:40,440.00,-31
1588056062,2020-04-28 08:41,440.00,-29
1588056122,2020-04-28 08:42,438.00,-31
1588056182,2020-04-28 08:43,441.00,-28
1588056243,2020-04-28 08:44,441.00,-28
1588056303,2020-04-28 08:45,441.00,-31
1588056363,2020-04-28 08:46,441.00,-28
1588056423,2020-04-28 08:47,440.00,-29
1588056483,2020-04-28 08:48,442.00,-30
1588056543,2020-04-28 08:49,437.00,-30
1588056603,2020-04-28 08:50,439.00,-31
1588056663,2020-04-28 08:51,439.00,-30
1588056723,2020-04-28 08:52,440.00,-31
1588056783,2020-04-28 08:53,440.00,-28
1588056843,2020-04-28 08:54,438.00,-28
1588056903,2020-04-28 08:55,441.00,-29
1588056964,2020-04-28 08:56,440.00,-29
1588057024,2020-04-28 08:57,438.00,-29
1588057084,2020-04-28 08:58,439.00,-31
1588057144,2020-04-28 08:59,441.00,-28
1588057204,2020-04-28 09:00,440.00,-30
1588057264,2020-04-28 09:01,439.00,-29
1588057324,2020-04-28 09:02,440.00,-30
1588057384,2020-04-28 09:03,441.00,-29
1588057444,2020-04-28 09:04,438.00,-30
1588057504,2020-04-28 09:05,441.00,-28
1588057564,2020-04-28 09:06,445.00,-29
1588057625,2020-04-28 09:07,445.00,-29
1588057685,2020-04-28 09:08,447.00,-28
1588057745,2020-04-28 09:09,447.00,-29
1588057805,2020-04-28 09:10,447.00,-29
1588057865,2020-04-28 09:11,447.00,-29
1588057925,2020-04-28 09:12,451.00,-29
1588057985,2020-04-28 09:13,446.00,-31
1588058045,2020-04-28 09:14,446.00,-31
1588058105,2020-04-28 09:15,446.00,-29
1588058165,2020-04-28 09:16,447.00,-28
1588058225,2020-04-28 09:17,445.00,-28
1588058285,2020-04-28 09:18,447.00,-29
1588058345,2020-04-28 09:19,447.00,-30
1588058405,2020-04-28 09:20,445.00,-31
1588058466,2020-04-28 09:21,447.00,-31
1588058526,2020-04-28 09:22,448.00,-29
1588058586,2020-04-28 09:23,448.00,-32
1588058646,2020-04-28 09:24,447.00,-30
1588058706,2020-04-28 09:25,445.00,-35
1588058766,2020-04-28 09:26,447.00,-33
1588058826,2020-04-28 09:27,447.00,-29
1588058886,2020-04-28 09:28,445.00,-28
1588058946,2020-04-28 09:29,446.00,-31
1588059006,2020-04-28 09:30,446.00,-29
1588059066,2020-04-28 09:31,446.00,-34
1588059127,2020-04-28 09:32,443.00,-34
1588059187,2020-04-28 09:33,443.00,-32
1588059247,2020-04-28 09:34,447.00,-30
1588059307,2020-04-28 09:35,446.00,-33
1588059367,2020-04-28 09:36,447.00,-30
1588059427,2020-04-28 09:37,447.00,-29
1588059487,2020-04-28 09:38,446.00,-30
1588059547,2020-04-28 09:39,446.00,-31
1588059607,2020-04-28 09:40,446.00,-28
1588059667,2020-04-28 09:41,447.00,-28
1588059727,2020-04-28 09:42,443.00,-30
1588059787,2020-04-28 09:43,446.00,-30
1588059847,2020-04-28 09:44,445.00,-30
1588059907,2020-04-28 09:45,445.00,-29
1588059967,2020-04-28 09:46,445.00,-29
1588060028,2020-04-28 09:47,445.00,-28
1588060088,2020-04-28 09:48,444.00,-29
1588060148,2020-04-28 09:49,442.00,-29
1588060208,2020-04-28 09:50,442.00,-31
1588060268,2020-04-28 09:51,449.00,-31
1588060328,2020-04-28 09:52,449.00,-30
1588060388,2020-04-28 09:53,448.00,-32
1588060448,2020-04-28 09:54,451.00,-31
1588060508,2020-04-28 09:55,449.00,-29
1588060568,2020-04-28 09:56,449.00,-31
1588060628,2020-04-28 09:57,452.00,-30
1588060688,2020-04-28 09:58,450.00,-30
1588060748,2020-04-28 09:59,454.00,-28
1588060809,2020-04-28 10:00,451.00,-28
1588060869,2020-04-28 10:01,450.00,-29
1588060929,2020-04-28 10:02,453.00,-30
1588060989,2020-04-28 10:03,450.00,-32
1588061049,2020-04-28 10:04,451.00,-30
1588061109,2020-04-28 10:05,449.00,-29
1588061169,2020-04-28 10:06,452.00,-29
1588061229,2020-04-28 10:07,449.00,-32
1588061289,2020-04-28 10:08,448.00,-35
1588061349,2020-04-28 10:09,449.00,-33
1588061409,2020-04-28 10:10,451.00,-35
1588061470,2020-04-28 10:11,450.00,-36
1588061530,2020-04-28 10:12,450.00,-29
1588061590,2020-04-28 10:13,451.00,-29
1588061650,2020-04-28 10:14,450.00,-28
1588061710,2020-04-28 10:15,450.00,-28